www.pogodaiklimat.ru

Погода и климат >> Архив погоды >> Австралия >> Северная территория >> Остров Маклер


ПОГОДА на Острове Маклер

  • Прогноз погоды на Острове Маклер
  • Монитор погоды на Острове Маклер

АРХИВ ПОГОДЫ на Острове Маклер

Время (UTC), дата Ветер
(напр.,м/с)
 
Видим.   Явления Облачность Т
(С)
Тd
(С)
f
(%)
Тe
(С)
Тes
(С)
Комфортность P
(гПа)
Po
(гПа)
Тmin
(С)
Tmax
(С)
R
(мм)
R24
(мм)
S
(см)
20 10.06 ЮВ 5 н/о н/о +24.3 +21.8 86 +31 +31 очень
душно
1012.5 1012.2
23 10.06 ЮВ 6 н/о н/о +26.7 +22.1 76 +35 +35 очень
душно
1014.3 1014.0
02 11.06 В 8 н/о н/о +27.0 +21.7 73 +35 +35 очень
душно
1013.4 1013.1 +24.2
05 11.06 В 10 н/о н/о +27.0 +22.8 78 +36 +36 очень
душно
1011.2 1010.9
08 11.06 В 8 н/о н/о +26.4 +23.7 85 +36 +36 очень
душно
1011.6 1011.3
11 11.06 В 7 н/о н/о +26.3 +24.0 87 +36 +36 очень
душно
1013.3 1013.0
14 11.06 В 10 н/о н/о +26.4 +23.5 84 +36 +36 очень
душно
1014.2 1013.9 +28.5
17 11.06 ЮВ 8 н/о н/о +25.2 +22.3 84 +33 +33 очень
душно
1013.0 1012.7
20 11.06 ЮВ 7 н/о н/о +24.1 +21.6 86 +31 +31 очень
душно
1013.2 1012.9
23 11.06 ЮВ 7 н/о н/о +26.0 +21.9 78 +33 +33 очень
душно
1015.1 1014.8
02 12.06 В 9 н/о н/о +25.8 +22.3 81 +34 +34 очень
душно
1014.6 1014.3 +23.9
05 12.06 В 9 н/о н/о +26.1 +23.2 84 +35 +35 очень
душно
1012.6 1012.3
08 12.06 В 9 н/о н/о +25.9 +22.6 82 +34 +34 очень
душно
1012.5 1012.2
11 12.06 В 8 н/о н/о +26.3 +23.4 84 +36 +36 очень
душно
1013.2 1012.9
17 12.06 В 9 н/о н/о +25.9 +23.0 84 +35 +35 очень
душно
1011.9 1011.6
20 12.06 В 8 н/о н/о +25.1 +22.6 86 +33 +33 очень
душно
1012.4 1012.1
23 12.06 В 8 н/о н/о +25.6 +22.1 81 +33 +33 очень
душно
1014.0 1013.7
02 13.06 ЮВ 8 н/о н/о +27.1 +21.8 73 +35 +35 очень
душно
1013.9 1013.6 +24.9
05 13.06 ЮВ 8 н/о н/о +27.5 +22.4 74 +36 +36 очень
душно
1011.5 1011.2
08 13.06 В 7 н/о н/о +25.9 +22.2 80 +34 +34 очень
душно
1011.2 1010.9
11 13.06 В 6 н/о н/о +25.9 +22.2 80 +34 +34 очень
душно
1013.0 1012.7
14 13.06 В 8 н/о н/о +25.9 +23.0 84 +35 +35 очень
душно
1013.1 1012.8 +28.0
17 13.06 ЮВ 8 н/о н/о +25.2 +21.5 80 +32 +32 очень
душно
1012.5 1012.2
20 13.06 ЮВ 6 н/о н/о +24.0 +19.7 77 +29 +29 душно 1012.5 1012.2
23 13.06 В 7 н/о н/о +25.5 +21.2 77 +32 +32 очень
душно
1013.7 1013.4
02 14.06 ЮВ 8 н/о н/о +26.4 +21.2 73 +33 +33 очень
душно
1012.8 1012.5 +23.5
05 14.06 В 8 н/о н/о +26.3 +21.5 75 +34 +34 очень
душно
1010.5 1010.2
08 14.06 В 7 н/о н/о +26.1 +20.9 73 +33 +33 очень
душно
1010.5 1010.2
11 14.06 В 6 н/о н/о +25.9 +22.0 79 +33 +33 очень
душно
1011.9 1011.6
14 14.06 В 6 н/о н/о +25.8 +22.5 82 +34 +34 очень
душно
1012.5 1012.2 +27.9
17 14.06 В 8 н/о н/о +25.6 +22.1 81 +33 +33 очень
душно
1012.0 1011.7
20 14.06 В 7 н/о н/о +24.9 +21.4 81 +32 +32 очень
душно
1012.4 1012.1
23 14.06 В 7 н/о н/о +25.8 +21.5 77 +33 +33 очень
душно
1014.1 1013.8
02 15.06 В 5 н/о н/о +27.0 +22.0 74 +35 +35 очень
душно
1013.7 1013.4 +24.3
05 15.06 В 4 н/о н/о +26.5 +21.3 73 +34 +34 очень
душно
1011.8 1011.5
08 15.06 В 6 н/о н/о +25.7 +21.6 78 +33 +33 очень
душно
1011.7 1011.4
11 15.06 В 6 н/о н/о +25.9 +23.0 84 +35 +35 очень
душно
1013.1 1012.8
14 15.06 В 8 н/о н/о +25.8 +22.7 83 +34 +34 очень
душно
1013.5 1013.2 +28.4
17 15.06 В 6 н/о н/о +25.7 +22.8 84 +34 +34 очень
душно
1012.6 1012.3
20 15.06 ЮВ 6 н/о н/о +25.1 +22.8 87 +33 +33 очень
душно
1012.7 1012.4
23 15.06 ЮВ 7 н/о н/о +26.6 +22.7 79 +35 +35 очень
душно
1014.4 1014.1
02 16.06 В 7 н/о н/о +26.8 +22.2 76 +35 +35 очень
душно
1013.8 1013.5 +24.4
05 16.06 В 6 н/о н/о +26.8 +22.0 75 +35 +35 очень
душно
1011.4 1011.1
08 16.06 В 7 н/о н/о +26.7 +20.5 69 +33 +33 очень
душно
1011.4 1011.1
11 16.06 В 10 н/о н/о +26.8 +20.6 69 +33 +33 очень
душно
1013.2 1012.9
14 16.06 В 7 н/о н/о +26.0 +21.4 76 +33 +33 очень
душно
1013.9 1013.6 +27.9
17 16.06 В 9 н/о н/о +25.3 +21.4 79 +32 +32 очень
душно
1013.1 1012.8
20 16.06 ЮВ 5 н/о н/о +23.7 +20.8 84 +30 +30 очень
душно
1013.4 1013.1
23 16.06 ЮВ 5 н/о н/о +25.9 +21.6 77 +33 +33 очень
душно
1015.1 1014.8
02 17.06 ЮВ 9 н/о н/о +27.4 +20.2 65 +34 +34 очень
душно
1014.2 1013.9 +23.5
05 17.06 В 9 н/о н/о +26.8 +20.9 70 +34 +34 очень
душно
1012.0 1011.7
08 17.06 В 7 н/о н/о +26.6 +21.8 75 +34 +34 очень
душно
1012.2 1011.9

 

Местоположение метеостанции Остров Маклер (Северная территория, Австралия): широта -11.05 долгота 132.98 высота над уровнем моря 2 м.

В архиве по умолчанию представлена погода на Острове Маклер за последнюю неделю. Архивные данные за месяц целиком и за предыдущие месяцы, начиная с января 2011 года, Вы можете получить, выбрав интересующий диапазон дат из раскрывающегося списка и нажав кнопку "Ввод!".


*Определитесь, кто Вы:
робот инопланетянин человек

Внимание! Время в таблицах - всемирное. Для получения местного времени необходимо прибавить поправку, которая равна 9.5 ч.

Смотрите также архив погоды в соседних городах и на ближайших метеорологических станциях:

Погода в Уорруви (Северная территория, Австралия) (80 км)
Погода в Кейп-Доне (Северная территория, Австралия) (135 км)
Погода в Манингриде (Северная территория, Австралия) (176 км)
Погода в Пойнт Стьюарт (Северная территория, Австралия) (178 км)
Погода в Джаберу (Северная территория, Австралия) (180 км)
Погода в Милинджимби (Северная территория, Австралия) (241 км)
Погода в Милд Пойнт (Северная территория, Австралия) (251 км)
Погода на Центральном плато Арнем (Северная территория, Австралия) (254 км)
Погода в Дарвине (Северная территория, Австралия) (274 км)
Погода в Гарден-Пойнте (Северная территория, Австралия) (282 км)

Пояснения к столбцам:

Ветер - указаны скорость ветра в м/с - средняя за 10 мин, порывы в срок и между сроками (в фигурных скобках) и направление, откуда дует ветер: С - северный, СВ - северо-восточный, В - восточный, ЮВ - юго-восточный, Ю - южный, ЮЗ - юго-западный, З - западный, СЗ - северо-западный.
Видимость - горизонтальная дальность видимости в метрах или километрах. При видимости от 1 до 10 км при отсутствии осадков обычно наблюдается дымка, при ухудшении видимости до 1 км и менее - туман. В сухую погоду видимость может ухудшаться дымом, пылью или мглою.
Явления - указаны атмосферные явления, наблюдавшиеся в срок или в последний час перед сроком; фигурными скобками обозначены явления, наблюдавшиеся между сроками (за 1-3 часа до срока); квадратными скобками обозначены град или гололедные отложения с указанием их диаметра в мм.
Облачность - указаны через наклонную черту общая и нижняя облачность в баллах и высота нижней границы облаков в метрах; квадратными скобками обозначены формы облаков: Ci - перистые, Cs - перисто-слоистые, Cc - перисто-кучевые, Ac - высококучевые, As - высокослоистые, Sc - слоисто-кучевые, Ns - слоисто-дождевые, Cu - кучевые, Cb - кучево-дождевые. Подробнее классификацию облаков см. в Атласе облаков (PDF).
T - Температура воздуха - температура, измеренная на высоте 2 м над землей.
Td - Температура точки росы - температура, при понижении до которой содержащийся в воздухе водяной пар достигнет насыщения.
f - Относительная влажность воздуха - влажноcть воздуха, измеренная на высоте 2 м над землей.
Te - Эффективная температура - температура, которую ощущает одетый по сезону человек в тени. Характеристика душности погоды. При расчете учитывается влияние влажности воздуха и скорости ветра на теплоощущения человека.
Tes - Эффективная температура на солнце - температура, которую ощущает человек, с поправкой на солнечный нагрев. Характеристика знойности погоды. Зависит от высоты солнца над горизонтом, облачности и скорости ветра. Ночью, в пасмурную погоду, а также при ветре 12 м/с и более поправка равна нулю.
P - Атмосферное давление - приведенное к уровню моря атмосферное давление.
Po - Атмосферное давление - измеренное на уровне метеостанции атмосферное давление.
Tmin - Минимальная температура - минимум температуры воздуха на высоте 2 м над землей.
Tmax - Максимальная температура - максимум температуры воздуха на высоте 2 м над землей.
R - Количество осадков - Количество выпавших осадков за период времени, мм. При наведении курсора мыши на число - период времени, за который выпало указанное количество осадков.
R24 - Количество осадков - Количество выпавших осадков за 24 часа, мм.
S - Снежный покров - Высота снежного покрова, см. При наведении курсора мыши на число - состояние снежного покрова и степень покрытия местности в баллах.